Location: Ellerstadt
(49.4644°N, 8.2615°E)
Time: 23:29:49
(UTC+00:00)

Okean 3 - Pass Details

Date: 03 March 2021
Orbit: 577 x 600 km, 82.5° (Epoch: 13 April)

Event Time Altitude Azimuth Distance (km) Brightness Sun altitude
Rises 18:35:25 0° 357° (N) 2,832 7.1 -14.1°
Reaches altitude 10° 18:37:48 10° 7° (N) 1,930 6.1 -14.5°
Maximum altitude 18:41:41 33° 72° (ENE) 998 4.1 -15.1°
Enters shadow 18:43:03 27° 109° (ESE) 1,156 4.4 -15.4°
